Terminal Aerodrome Forecast
Issued by NWS

Current Version | Previous Version | Graphics & Text | Print | Product List | Glossary On
Versions: 1 2 3 4 5 6 7 8 9 10 11 12 13 14 15 16
000
FTUS41 KPBZ 151400 CCA
TAFHLG
TAF COR
KHLG 151411Z 1514/1612 31010G20KT 3SM -SN OVC008
      TEMPO 1514/1515 1 1/2SM -SN
     FM151700 31019G26KT P6SM -SHSN OVC015
     FM152000 32010G20KT P6SM VCSH BKN025
     FM160600 33005KT P6SM BKN035=

USA.gov is the U.S. government's official web portal to all federal, state and local government web resources and services.